| time (UTC) | temp F | wind direction | speed knots | gust knots | rain 1hr in | rain 24hr in | rain mn in | humidity % | barometer mb |
| 20260505124556 | 58 | 199 | 6.1 | 11.3 | 0.00 | 0.00 | 0.00 | 74 | 1010.8 |
| 20260505123058 | 58 | 218 | 8.7 | 18.2 | 0.00 | 0.00 | 0.00 | 75 | 1010.8 |
| 20260505121550 | 57 | 197 | 8.7 | 15.6 | 0.00 | 0.00 | 0.00 | 76 | 1010.8 |
| 20260505120104 | 56 | 173 | 7.0 | 15.6 | 0.00 | 0.00 | 0.00 | 77 | 1010.8 |
| 20260505114540 | 56 | 194 | 6.1 | 11.3 | 0.00 | 0.00 | 0.00 | 79 | 1010.9 |
| 20260505113035 | 55 | 219 | 7.0 | 17.4 | 0.00 | 0.00 | 0.00 | 80 | 1010.9 |
| 20260505111535 | 54 | 230 | 6.1 | 14.8 | 0.00 | 0.00 | 0.00 | 81 | 1010.8 |
| 20260505101522 | 52 | 204 | 4.3 | 8.7 | 0.00 | 0.00 | 0.00 | 83 | 1010.9 |
| 20260505100022 | 52 | 237 | 6.1 | 12.2 | 0.00 | 0.00 | 0.00 | 83 | 1010.8 |
| 20260505094519 | 52 | 195 | 5.2 | 10.4 | 0.00 | 0.00 | 0.00 | 83 | 1010.6 |
| 20260505093017 | 51 | 188 | 3.5 | 8.7 | 0.00 | 0.00 | 0.00 | 83 | 1010.6 |
| 20260505091515 | 51 | 197 | 2.6 | 7.8 | 0.00 | 0.00 | 0.00 | 83 | 1010.5 |
| 20260505090015 | 51 | 209 | 2.6 | 7.8 | 0.00 | 0.00 | 0.00 | 83 | 1010.6 |
| 20260505084513 | 52 | 258 | 3.5 | 9.6 | 0.00 | 0.00 | 0.00 | 83 | 1010.5 |
| 20260505083011 | 52 | 180 | 2.6 | 10.4 | 0.00 | 0.00 | 0.00 | 83 | 1010.6 |
| 20260505081514 | 52 | 176 | 5.2 | 10.4 | 0.00 | 0.00 | 0.00 | 83 | 1010.8 |
| 20260505080009 | 52 | 219 | 4.3 | 12.2 | 0.00 | 0.00 | 0.00 | 83 | 1010.8 |
| 20260505074509 | 52 | 216 | 5.2 | 10.4 | 0.00 | 0.00 | 0.00 | 83 | 1010.8 |
| 20260505073008 | 52 | 227 | 3.5 | 8.7 | 0.00 | 0.00 | 0.00 | 82 | 1010.9 |
| 20260505071507 | 52 | 219 | 4.3 | 10.4 | 0.00 | 0.00 | 0.00 | 83 | 1010.8 |
| 20260505070007 | 52 | 225 | 1.7 | 6.1 | 0.00 | 0.00 | 0.00 | 82 | 1010.9 |
| 20260505064506 | 52 | 205 | 3.5 | 7.8 | 0.00 | 0.00 | 0.00 | 83 | 1010.8 |
| 20260505063007 | 52 | 206 | 2.6 | 9.6 | 0.00 | 0.00 | 0.00 | 83 | 1010.9 |
| 20260505061504 | 52 | 210 | 4.3 | 8.7 | 0.00 | 0.00 | 0.00 | 82 | 1010.9 |
| 20260505060003 | 52 | 197 | 4.3 | 11.3 | 0.00 | 0.00 | 0.00 | 82 | 1010.8 |
| 20260505054505 | 52 | 215 | 4.3 | 11.3 | 0.00 | 0.00 | 0.00 | 81 | 1010.9 |
| 20260505053001 | 53 | 217 | 5.2 | 11.3 | 0.00 | 0.00 | 0.00 | 81 | 1010.9 |
| 20260505051701 | 52 | 197 | 5.2 | 9.6 | 0.00 | 0.00 | 0.00 | 80 | 1011.0 |
| 20260505050104 | 52 | 212 | 4.3 | 10.4 | 0.00 | 0.00 | 0.00 | 80 | 1010.9 |
| 20260505041602 | 52 | 202 | 3.5 | 11.3 | 0.00 | 0.00 | 0.00 | 78 | 1011.0 |
| 20260505040059 | 53 | 224 | 6.1 | 15.6 | 0.00 | 0.00 | 0.00 | 77 | 1011.3 |
| 20260505034606 | 53 | 159 | 6.1 | 17.4 | 0.00 | 0.00 | 0.00 | 77 | 1011.4 |
| 20260505033049 | 53 | 185 | 5.2 | 12.2 | 0.00 | 0.00 | 0.00 | 76 | 1011.2 |
| 20260505031548 | 53 | 236 | 4.3 | 12.2 | 0.00 | 0.00 | 0.00 | 75 | 1011.2 |
| 20260505030054 | 53 | 234 | 6.1 | 14.8 | 0.00 | 0.00 | 0.00 | 74 | 1011.3 |
| 20260505024559 | 53 | 235 | 6.1 | 13.9 | 0.00 | 0.00 | 0.00 | 74 | 1011.3 |
| 20260505023047 | 53 | 236 | 4.3 | 13.9 | 0.00 | 0.00 | 0.00 | 73 | 1011.3 |
| 20260505021546 | 53 | 250 | 8.7 | 19.1 | 0.00 | 0.00 | 0.00 | 73 | 1011.2 |
| 20260505020059 | 53 | 248 | 7.0 | 15.6 | 0.00 | 0.00 | 0.00 | 73 | 1011.1 |
| 20260505014543 | 53 | 221 | 7.8 | 20.0 | 0.00 | 0.00 | 0.00 | 73 | 1011.0 |
| 20260505013043 | 54 | 249 | 6.1 | 20.0 | 0.00 | 0.00 | 0.00 | 72 | 1010.7 |
| 20260505011539 | 54 | 218 | 7.0 | 17.4 | 0.00 | 0.00 | 0.00 | 72 | 1010.5 |
| 20260505010043 | 54 | 212 | 6.1 | 16.5 | 0.00 | 0.00 | 0.00 | 72 | 1010.4 |
| 20260505004556 | 54 | 204 | 7.8 | 21.7 | 0.00 | 0.00 | 0.00 | 71 | 1010.2 |
| 20260505003037 | 54 | 304 | 7.8 | 15.6 | 0.00 | 0.00 | 0.00 | 70 | 1009.9 |
| 20260505001539 | 54 | 199 | 6.1 | 20.9 | 0.00 | 0.00 | 0.00 | 68 | 1009.8 |
| 20260505000037 | 54 | 192 | 6.1 | 14.8 | 0.00 | 0.00 | 0.00 | 67 | 1009.6 |
| 20260504234536 | 54 | 202 | 6.1 | 12.2 | 0.00 | 0.00 | 0.00 | 67 | 1009.3 |
| 20260504233035 | 54 | 215 | 7.0 | 14.8 | 0.00 | 0.00 | 0.00 | 67 | 1009.3 |
| 20260504231540 | 55 | 200 | 7.0 | 18.2 | 0.00 | 0.00 | 0.00 | 67 | 1009.1 |
| 20260504230036 | 55 | 178 | 6.1 | 14.8 | 0.00 | 0.00 | 0.00 | 67 | 1009.0 |
| 20260504224539 | 56 | 193 | 9.6 | 20.0 | 0.00 | 0.00 | 0.00 | 66 | 1008.9 |
| 20260504223033 | 56 | 225 | 8.7 | 17.4 | 0.00 | 0.00 | 0.00 | 65 | 1008.8 |
| 20260504221538 | 56 | 205 | 7.8 | 15.6 | 0.00 | 0.00 | 0.00 | 64 | 1009.0 |
| 20260504220032 | 57 | 198 | 7.8 | 18.2 | 0.00 | 0.00 | 0.00 | 62 | 1009.1 |
| 20260504214531 | 58 | 211 | 7.0 | 13.9 | 0.00 | 0.00 | 0.00 | 61 | 1009.2 |
| 20260504213038 | 58 | 272 | 7.8 | 21.7 | 0.00 | 0.00 | 0.00 | 60 | 1009.1 |
| 20260504211534 | 59 | 240 | 8.7 | 19.1 | 0.00 | 0.00 | 0.00 | 57 | 1009.0 |
| 20260504210030 | 60 | 214 | 7.8 | 20.0 | 0.00 | 0.00 | 0.00 | 55 | 1009.0 |
| 20260504204533 | 61 | 196 | 7.0 | 21.7 | 0.00 | 0.00 | 0.00 | 52 | 1008.7 |
| 20260504203030 | 61 | 238 | 8.7 | 17.4 | 0.00 | 0.00 | 0.00 | 52 | 1008.8 |
| 20260504201529 | 62 | 239 | 7.0 | 18.2 | 0.00 | 0.00 | 0.00 | 52 | 1008.7 |
| 20260504200028 | 62 | 199 | 7.8 | 20.9 | 0.00 | 0.00 | 0.00 | 48 | 1008.7 |
| 20260504194527 | 64 | 201 | 7.8 | 20.0 | 0.00 | 0.00 | 0.00 | 46 | 1008.4 |
| 20260504193027 | 64 | 238 | 9.6 | 20.9 | 0.00 | 0.00 | 0.00 | 41 | 1008.3 |
| 20260504191537 | 64 | 215 | 12.2 | 23.5 | 0.00 | 0.00 | 0.00 | 43 | 1008.6 |
| 20260504190025 | 64 | 271 | 9.6 | 24.3 | 0.00 | 0.00 | 0.00 | 45 | 1008.6 |
| 20260504184539 | 64 | 257 | 7.8 | 20.0 | 0.00 | 0.00 | 0.00 | 47 | 1008.7 |
| 20260504183024 | 63 | 144 | 7.8 | 18.2 | 0.00 | 0.00 | 0.00 | 47 | 1008.7 |
| 20260504181523 | 64 | 235 | 6.1 | 17.4 | 0.00 | 0.00 | 0.00 | 46 | 1008.3 |
| 20260504180023 | 63 | 259 | 10.4 | 20.9 | 0.00 | 0.00 | 0.00 | 42 | 1008.5 |
| 20260504174521 | 64 | 257 | 11.3 | 22.6 | 0.00 | 0.00 | 0.00 | 40 | 1008.8 |
| 20260504173018 | 65 | 205 | 7.0 | 26.1 | 0.00 | 0.00 | 0.00 | 39 | 1008.8 |
| 20260504171517 | 65 | 282 | 8.7 | 17.4 | 0.00 | 0.00 | 0.00 | 39 | 1008.8 |